Tracking 22440 objects as of 27-Feb-2021
HD Live streaming from Space Station
objects crossing your sky now

CZ-2C DEB

Track CZ-2C DEB now!
10-day predictions


NORAD ID: 37768
Int'l Code: 2011-039D
Perigee: 691.3 km
Apogee: 905.8 km
Inclination: 98.2 °
Period: 100.7 minutes
Semi major axis: 7169 km
RCS: 0.0872 m2 (small)
Launch date: July 29, 2011
Source: People's Republic of China (PRC)
Launch site: Jiuquan Satellite Launch Center, China (JSC)

Note: This is SATELLITE DEBRIS
aabbcc
Your satellite tracking list
Your tracking list is empty




NASA's NSSDC Master Catalog

Two Line Element Set (TLE):
1 37768U 11039D   21057.51766524  .00000380  00000-0  14543-3 0  9997
2 37768  98.1769  61.8743 0149587 274.0532 257.2891 14.30088054499402
Source of the keplerian elements: AFSPC